Find Kosmos-648

NORAD ID: 7272 Int'l Des: 1974-024 Owner: GUKOSR Country: SU operational
LEOCIRCULAR

現在のビュー

3D地球を読み込み中...

About Kosmos-648

Kosmos-648 (NORAD 7272) is a satellite by GUKOSR of SU. It operates in LEO, CIRCULAR orbit

次回通過

Passes for default location (London). Set your location on the main map for personalized predictions.

高度履歴

Loading altitude history...

軌道要素

1 07272U 74024H 26195.58122634 .00000013 00000-0 19019-3 0 9996
2 07272 74.0168 255.3912 0033730 285.3049 189.5181 12.50376894383822
Epoch: Jul 14, 2026 • Age: 8 hours

現在のステータス

高度 1465.8 km
遠地点 / 近地点 N/A
速度 7.13 km/s
衛星直下点 -35.91°S, 178.62°W
タイプ other

Most Searched